Overview Statistics Trail Chart Weather Telemetry Raw packets
 

This is the latest recevied weather packets stored in our database for station/object OK4PZ-5. If no packets are shown the sender has not sent any weather packets the latest 10 day(s).

<< 28 29 30 31 32 33 34 >>
Time Temp. Humidity Pressure Rain* Wind** Luminosity Snow
1787938203 24.44° C 64% 1016 hPa 0 mm - - -
1787937302 25° C 63% 1015 hPa 0 mm - - -
1787936402 26.11° C 59% 1015 hPa 0 mm - - -
1787935502 27.22° C 50% 1014 hPa 0 mm - - -
1787934602 27.78° C 49% 1014 hPa 0 mm - - -
1787933702 27.78° C 49% 1015 hPa 0 mm - - -
1787932802 28.33° C 48% 1014 hPa 0 mm - - -
1787931902 28.89° C 46% 1015 hPa 0 mm - - -
1787931002 29.44° C 46% 1015 hPa 0 mm - - -
1787930102 30.56° C 43% 1015 hPa 0 mm - - -
1787929205 29.44° C 44% 1015 hPa 0 mm - - -
1787928302 30° C 44% 1015 hPa 0 mm - - -
1787927403 29.44° C 43% 1015 hPa 0 mm - - -
1787926502 30° C 43% 1015 hPa 0 mm - - -
1787925603 30° C 44% 1014 hPa 0 mm - - -
1787924703 30° C 44% 1014 hPa 0 mm - - -
1787923802 30° C 44% 1014 hPa 0 mm - - -
1787922902 30° C 44% 1015 hPa 0 mm - - -
1787922002 30° C 43% 1015 hPa 0 mm - - -
1787921102 29.44° C 45% 1015 hPa 0 mm - - -
1787920202 28.89° C 46% 1015 hPa 0 mm - - -
1787919302 28.33° C 46% 1015 hPa 0 mm - - -
1787918402 28.33° C 46% 1015 hPa 0 mm - - -
1787917503 27.78° C 47% 1015 hPa 0 mm - - -
1787916602 27.78° C 47% 1015 hPa 0 mm - - -

* Rain latest hour (hover to see other rain measurements)
** Current wind speed in m/s (hover to see current wind gust speed)